TimeMDT,TemperatureF,Dew PointF,Humidity,Sea Level PressureIn,VisibilityMPH,Wind Direction,Wind SpeedMPH,Gust SpeedMPH,PrecipitationIn,Events,Conditions,WindDirDegrees,DateUTC
12:56 AM,44.1,34.0,68,29.94,10.0,East,5.8,-,N/A,,Mostly Cloudy,80,2013-10-10 06:56:00
1:56 AM,45.0,34.0,65,29.91,10.0,ESE,4.6,-,N/A,,Overcast,110,2013-10-10 07:56:00
2:56 AM,43.0,35.1,74,29.90,10.0,SE,4.6,-,N/A,,Overcast,130,2013-10-10 08:56:00
3:56 AM,39.9,33.1,77,29.90,10.0,Calm,Calm,-,N/A,,Scattered Clouds,0,2013-10-10 09:56:00
4:56 AM,41.0,32.0,70,29.90,10.0,ESE,6.9,-,N/A,,Clear,120,2013-10-10 10:56:00
5:56 AM,37.9,30.9,76,29.88,10.0,East,9.2,-,N/A,,Clear,100,2013-10-10 11:56:00
6:56 AM,37.0,30.9,79,29.88,10.0,East,5.8,-,N/A,,Clear,100,2013-10-10 12:56:00
7:56 AM,41.0,34.0,76,29.88,10.0,Calm,Calm,-,N/A,,Clear,0,2013-10-10 13:56:00
8:56 AM,48.0,36.0,63,29.85,10.0,East,3.5,-,N/A,,Clear,100,2013-10-10 14:56:00
9:56 AM,52.0,37.9,59,29.83,10.0,East,4.6,-,N/A,,Clear,100,2013-10-10 15:56:00
10:56 AM,57.0,39.9,53,29.80,10.0,East,5.8,-,N/A,,Clear,80,2013-10-10 16:56:00
11:56 AM,59.0,41.0,51,29.78,10.0,East,5.8,-,N/A,,Clear,100,2013-10-10 17:56:00
12:56 PM,60.1,43.0,53,29.75,10.0,East,8.1,-,N/A,,Clear,90,2013-10-10 18:56:00
1:56 PM,64.9,46.0,50,29.71,10.0,ESE,8.1,17.3,N/A,,Clear,120,2013-10-10 19:56:00
2:56 PM,63.0,46.0,54,29.70,10.0,SE,9.2,-,N/A,,Partly Cloudy,140,2013-10-10 20:56:00
3:56 PM,62.1,48.0,60,29.69,10.0,ESE,10.4,-,N/A,,Partly Cloudy,120,2013-10-10 21:56:00
4:56 PM,60.1,48.0,64,29.69,10.0,SE,6.9,-,N/A,,Partly Cloudy,140,2013-10-10 22:56:00
5:56 PM,57.0,48.9,74,29.69,10.0,East,5.8,-,N/A,,Mostly Cloudy,100,2013-10-10 23:56:00
6:56 PM,54.0,48.0,80,29.69,9.0,Calm,Calm,-,N/A,,Scattered Clouds,0,2013-10-11 00:56:00
7:56 PM,51.1,46.9,86,29.70,10.0,Calm,Calm,-,N/A,,Clear,0,2013-10-11 01:56:00
8:56 PM,51.1,46.9,86,29.67,10.0,Calm,Calm,-,N/A,,Partly Cloudy,0,2013-10-11 02:56:00
9:56 PM,51.1,48.0,89,29.65,10.0,NE,3.5,-,0.00,,Overcast,40,2013-10-11 03:56:00
10:56 PM,51.1,46.9,86,29.63,10.0,NNE,5.8,-,0.00,,Clear,20,2013-10-11 04:56:00
11:56 PM,52.0,48.9,89,29.61,10.0,NNE,5.8,-,0.00,,Overcast,20,2013-10-11 05:56:00